User: anonymous   Login
Location: Unspecified
(0.0000°N, 0.0000°E)
Time: 13:32:38
(UTC+01:00)
Language:

Atlas Centaur 2 - Orbit

View from above orbital plane
View from above orbital plane
View from above satellite
View from above satellite

Ground track
Ground track

The orbit data is extracted from the following two-line orbital elements,

1 00694U 63047A   17054.45596826  .00000307  00000-0  28095-4 0  9999
2 00694  30.3562  70.5173 0588248 124.8915 240.8414 14.02005553666745
Epoch (UTC): 23 February 2017 10:56:35
Eccentricity: 0.0588248
inclination: 30.3562°
perigee height: 459 km
apogee height: 1314 km
right ascension of ascending node: 70.5173°
argument of perigee: 124.8915°
revolutions per day: 14.02005553
mean anomaly at epoch: 240.8414°
orbit number at epoch: 66674

The dashed part of the orbit path shows where the satellite is in the earth's shadow,  

DLR